Tracking 17921 objects as of 16-January-2017
HD Live streaming from Space Station
objects crossing your sky now

COSMOS 1481 DEB

Track COSMOS 1481 DEB now!


NORAD ID: 14192
Int'l Code: 1983-070E
Perigee: 2,020.0 km
Apogee: 37,910.6 km
Inclination: 67.4 °
Period: 708.9 minutes
Semi major axis: 26336 km
RCS: 2.531 m2 (large)
Launch date: July 8, 1983
Source: Commonwealth of Independent States (former USSR) (CIS)
Launch site: PLESETSK MISSILE AND SPACE COMPLEX (PKMTR)

Note: This is SATELLITE DEBRIS
Your satellite tracking list
Your tracking list is empty





NASA's NSSDC Master Catalog

Two Line Element Set (TLE):
1 14192U 83070E   17014.97215955  .00000640  00000-0  00000+0 0  9990
2 14192  67.3698 101.0559 6813894   3.4462   6.2988  2.03128323169730
Source of the keplerian elements: AFSPC